{"data":{"norad_id":64344,"intl_designator":"2025-126A","name":"STARLINK-33977","alt_names":[],"object_type":"PAYLOAD","status":"ACTIVE","operator":null,"country":"US","launch_date":"2025-06-13","launch_site_code":"AFWTR","launch_vehicle":null,"mission":null,"orbit_class":"UNKNOWN","rcs_meters":null,"size_class":null,"mass_kg":null,"dimensions":null,"purposes":["comms"],"wikipedia_slug":null,"has_3d_model":false,"image_url":null,"decayed_at":null,"tle_current":{"epoch":"2026-09-20T10:25:04.935360Z","epoch_age_seconds":140308,"freshness":"FRESH","line1":"1 64344U 25126A   26263.43408490  .00014077  00000+0  49293-3 0  9996","line2":"2 64344  70.0011 261.0108 0003533 280.1518  79.9259 15.29597857 71129","mean_motion":15.29597857,"eccentricity":0.0003533,"inclination_deg":70.0011,"raan_deg":261.0108,"arg_perigee_deg":280.1518,"mean_anomaly_deg":79.9259,"bstar":0.00049293,"rev_number":7112,"period_min":94.142391309587,"perigee_km":474.59162496478,"apogee_km":479.43547434317,"semimajor_km":6855.150549654,"source":"CELESTRAK","updated_at":"2026-09-21T09:00:35.315446Z"}}}